Location: Buckeye Ditch
(40.9104°N, 122.9517°W)
Time: 12:57:02
(UTC+00:00)

Tiros 1 despin weight - Pass Details

Date: 23 May 2025
Orbit: 563 x 601 km, 48.2° (Epoch: 22 June)

Event Time Altitude Azimuth Distance (km) Brightness Sun altitude
Rises 10:01:22 0° 248° (WSW) 2,794 - -23.1°
Reaches altitude 10° 10:03:38 10° 251° (WSW) 1,903 - -22.9°
Exits shadow 10:07:15 55° 282° (WNW) 708 ? -22.5°
Maximum altitude 10:07:59 67° 334° (NNW) 641 ? -22.5°
Drops below altitude 10° 10:12:24 10° 58° (ENE) 1,932 ? -22.0°
Sets 10:14:44 0° 61° (ENE) 2,840 ? -21.8°
